| time (UTC) | temp F | wind direction | speed MPH | gust MPH | rain 1hr in | rain 24hr in | rain mn in | humidity % | barometer mb |
| 20260904215903 | 62 | 0 | 1.0 | 4.0 | 0.00 | 0.11 | 0.11 | 48 | 1015.0 |
| 20260904215404 | 62 | 161 | 1.0 | 4.0 | 0.00 | 0.11 | 0.11 | 49 | 1015.0 |
| 20260904214905 | 62 | 148 | 1.0 | 4.0 | 0.00 | 0.11 | 0.11 | 48 | 1015.1 |
| 20260904214404 | 62 | 219 | 1.0 | 5.0 | 0.00 | 0.11 | 0.11 | 49 | 1015.2 |
| 20260904213402 | 63 | 209 | 1.0 | 4.0 | 0.00 | 0.11 | 0.11 | 53 | 1015.3 |
| 20260904212903 | 63 | 199 | 1.0 | 6.0 | 0.00 | 0.11 | 0.11 | 57 | 1015.3 |
| 20260904212404 | 63 | 200 | 2.0 | 6.0 | 0.00 | 0.11 | 0.11 | 57 | 1015.1 |
| 20260904211903 | 62 | 263 | 2.0 | 7.0 | 0.00 | 0.11 | 0.11 | 57 | 1015.2 |
| 20260904211406 | 62 | 278 | 2.0 | 7.0 | 0.00 | 0.11 | 0.11 | 59 | 1015.2 |
| 20260904210903 | 61 | 135 | 3.0 | 7.0 | 0.00 | 0.11 | 0.11 | 61 | 1015.2 |
| 20260904210403 | 61 | 173 | 2.0 | 6.0 | 0.00 | 0.11 | 0.11 | 63 | 1015.1 |
| 20260904204402 | 61 | 0 | 0.0 | 3.0 | 0.00 | 0.11 | 0.11 | 67 | 1014.8 |
| 20260904203903 | 59 | 126 | 0.0 | 1.0 | 0.00 | 0.11 | 0.11 | 70 | 1014.8 |
| 20260904203400 | 59 | 128 | 1.0 | 3.0 | 0.00 | 0.11 | 0.11 | 71 | 1014.8 |
| 20260904202852 | 58 | 126 | 2.0 | 4.0 | 0.00 | 0.11 | 0.11 | 73 | 1014.9 |
| 20260904202346 | 58 | 0 | 1.0 | 4.0 | 0.00 | 0.11 | 0.11 | 74 | 1014.9 |
| 20260904201841 | 58 | 0 | 0.0 | 4.0 | 0.00 | 0.11 | 0.11 | 71 | 1014.9 |
| 20260904201334 | 58 | 174 | 0.0 | 0.0 | 0.00 | 0.11 | 0.11 | 71 | 1015.0 |
| 20260904200838 | 58 | 175 | 0.0 | 0.0 | 0.00 | 0.11 | 0.11 | 73 | 1015.0 |
| 20260904200332 | 58 | 0 | 0.0 | 0.0 | 0.00 | 0.11 | 0.11 | 73 | 1015.1 |
| 20260904195831 | 58 | 0 | 0.0 | 0.0 | 0.00 | 0.11 | 0.11 | 72 | 1015.0 |
| 20260904195331 | 58 | 86 | 0.0 | 0.0 | 0.00 | 0.11 | 0.11 | 72 | 1014.9 |
| 20260904194830 | 57 | 98 | 1.0 | 4.0 | 0.00 | 0.11 | 0.11 | 74 | 1014.9 |
| 20260904194332 | 57 | 0 | 1.0 | 4.0 | 0.00 | 0.11 | 0.11 | 74 | 1015.0 |
| 20260904193332 | 57 | 0 | 0.0 | 2.0 | 0.00 | 0.11 | 0.11 | 76 | 1015.0 |
| 20260904192831 | 56 | 0 | 0.0 | 2.0 | 0.00 | 0.11 | 0.11 | 78 | 1015.0 |
| 20260904192333 | 56 | 0 | 1.0 | 2.0 | 0.00 | 0.11 | 0.11 | 78 | 1015.0 |
| 20260904191833 | 55 | 0 | 1.0 | 3.0 | 0.00 | 0.11 | 0.11 | 78 | 1015.1 |
| 20260904191330 | 55 | 0 | 1.0 | 3.0 | 0.00 | 0.11 | 0.11 | 79 | 1015.1 |
| 20260904190830 | 55 | 0 | 1.0 | 3.0 | 0.00 | 0.11 | 0.11 | 79 | 1015.2 |
| 20260904190331 | 55 | 0 | 0.0 | 2.0 | 0.00 | 0.11 | 0.11 | 80 | 1015.0 |
| 20260904185830 | 55 | 0 | 0.0 | 1.0 | 0.00 | 0.11 | 0.11 | 80 | 1015.0 |
| 20260904185331 | 54 | 0 | 0.0 | 2.0 | 0.00 | 0.11 | 0.11 | 80 | 1015.0 |
| 20260904184832 | 54 | 0 | 0.0 | 2.0 | 0.00 | 0.11 | 0.11 | 80 | 1015.0 |
| 20260904184332 | 54 | 0 | 0.0 | 2.0 | 0.00 | 0.11 | 0.11 | 80 | 1014.9 |
| 20260904183319 | 53 | 0 | 0.0 | 2.0 | 0.00 | 0.15 | 0.11 | 80 | 1014.9 |
| 20260904182817 | 53 | 0 | 0.0 | 2.0 | 0.00 | 0.21 | 0.11 | 81 | 1014.8 |
| 20260904182320 | 53 | 0 | 0.0 | 2.0 | 0.00 | 0.21 | 0.11 | 81 | 1014.8 |
| 20260904181817 | 53 | 0 | 0.0 | 0.0 | 0.00 | 0.21 | 0.11 | 81 | 1014.8 |
| 20260904181317 | 53 | 107 | 0.0 | 0.0 | 0.00 | 0.21 | 0.11 | 81 | 1014.9 |
| 20260904180314 | 52 | 107 | 1.0 | 3.0 | 0.00 | 0.22 | 0.11 | 81 | 1014.9 |
| 20260904175312 | 52 | 92 | 2.0 | 4.0 | 0.00 | 0.23 | 0.11 | 82 | 1014.8 |
| 20260904174812 | 52 | 0 | 1.0 | 4.0 | 0.00 | 0.23 | 0.11 | 82 | 1014.6 |
| 20260904173812 | 52 | 29 | 0.0 | 0.0 | 0.00 | 0.23 | 0.11 | 82 | 1014.5 |
| 20260904172809 | 51 | 29 | 0.0 | 3.0 | 0.00 | 0.23 | 0.11 | 83 | 1014.4 |
| 20260904172307 | 51 | 33 | 0.0 | 3.0 | 0.00 | 0.23 | 0.11 | 82 | 1014.2 |
| 20260904171806 | 51 | 44 | 0.0 | 2.0 | 0.00 | 0.23 | 0.11 | 83 | 1014.2 |
| 20260904170808 | 51 | 44 | 0.0 | 0.0 | 0.00 | 0.23 | 0.11 | 82 | 1014.0 |
| 20260904170305 | 51 | 44 | 0.0 | 1.0 | 0.00 | 0.23 | 0.11 | 83 | 1013.9 |
| 20260904165808 | 50 | 44 | 0.0 | 2.0 | 0.00 | 0.23 | 0.11 | 83 | 1013.9 |
| 20260904165305 | 50 | 44 | 0.0 | 2.0 | 0.00 | 0.23 | 0.11 | 82 | 1013.8 |
| 20260904164808 | 50 | 71 | 0.0 | 2.0 | 0.00 | 0.23 | 0.11 | 83 | 1013.8 |
| 20260904164308 | 50 | 349 | 1.0 | 3.0 | 0.00 | 0.23 | 0.11 | 83 | 1013.7 |
| 20260904163805 | 50 | 349 | 1.0 | 3.0 | 0.00 | 0.23 | 0.11 | 83 | 1013.7 |
| 20260904163309 | 50 | 355 | 1.0 | 3.0 | 0.00 | 0.23 | 0.11 | 83 | 1013.6 |
| 20260904162808 | 50 | 0 | 1.0 | 3.0 | 0.00 | 0.23 | 0.11 | 83 | 1013.6 |
| 20260904162307 | 50 | 347 | 0.0 | 3.0 | 0.00 | 0.23 | 0.11 | 83 | 1013.3 |
| 20260904161804 | 50 | 349 | 1.0 | 3.0 | 0.00 | 0.23 | 0.11 | 83 | 1013.3 |
| 20260904161306 | 49 | 11 | 1.0 | 3.0 | 0.00 | 0.23 | 0.11 | 84 | 1013.3 |
| 20260904160805 | 49 | 74 | 1.0 | 3.0 | 0.01 | 0.23 | 0.11 | 84 | 1013.2 |
| 20260904155805 | 49 | 339 | 1.0 | 4.0 | 0.01 | 0.22 | 0.11 | 84 | 1013.0 |
| 20260904155307 | 49 | 341 | 1.0 | 4.0 | 0.01 | 0.22 | 0.11 | 84 | 1013.0 |
| 20260904154807 | 49 | 340 | 1.0 | 3.0 | 0.02 | 0.22 | 0.11 | 84 | 1012.9 |
| 20260904153303 | 49 | 334 | 1.0 | 4.0 | 0.05 | 0.22 | 0.11 | 84 | 1012.8 |
| 20260904152758 | 49 | 339 | 2.0 | 3.0 | 0.05 | 0.22 | 0.11 | 84 | 1012.7 |
| 20260904152252 | 49 | 341 | 2.0 | 4.0 | 0.06 | 0.23 | 0.11 | 84 | 1012.8 |
| 20260904151745 | 49 | 345 | 2.0 | 4.0 | 0.07 | 0.23 | 0.11 | 84 | 1012.9 |
| 20260904151243 | 49 | 346 | 1.0 | 4.0 | 0.07 | 0.23 | 0.11 | 84 | 1012.9 |
| 20260904150238 | 49 | 355 | 1.0 | 4.0 | 0.07 | 0.23 | 0.10 | 84 | 1012.9 |
| 20260904145740 | 49 | 325 | 1.0 | 4.0 | 0.07 | 0.16 | 0.10 | 84 | 1012.9 |
| 20260904145238 | 49 | 338 | 1.0 | 3.0 | 0.08 | 0.16 | 0.10 | 84 | 1012.9 |
| 20260904144738 | 49 | 339 | 0.0 | 2.0 | 0.07 | 0.16 | 0.09 | 84 | 1012.9 |
| 20260904144238 | 49 | 339 | 0.0 | 0.0 | 0.06 | 0.16 | 0.08 | 84 | 1012.8 |
| 20260904143734 | 50 | 338 | 0.0 | 0.0 | 0.05 | 0.16 | 0.06 | 84 | 1012.8 |
| 20260904143236 | 50 | 338 | 0.0 | 0.0 | 0.04 | 0.16 | 0.06 | 84 | 1012.7 |
| 20260904142733 | 50 | 338 | 0.0 | 0.0 | 0.04 | 0.16 | 0.06 | 83 | 1012.5 |
| 20260904142233 | 50 | 340 | 0.0 | 1.0 | 0.04 | 0.16 | 0.05 | 83 | 1012.2 |
| 20260904141731 | 50 | 340 | 0.0 | 1.0 | 0.03 | 0.16 | 0.04 | 83 | 1012.2 |
| 20260904141232 | 50 | 340 | 0.0 | 1.0 | 0.03 | 0.16 | 0.04 | 83 | 1012.1 |
| 20260904140730 | 50 | 339 | 0.0 | 1.0 | 0.02 | 0.16 | 0.03 | 83 | 1011.9 |
| 20260904140232 | 50 | 340 | 0.0 | 1.0 | 0.02 | 0.16 | 0.03 | 83 | 1011.9 |
| 20260904135730 | 51 | 339 | 0.0 | 3.0 | 0.02 | 0.14 | 0.02 | 83 | 1011.7 |
| 20260904135236 | 51 | 339 | 1.0 | 3.0 | 0.01 | 0.14 | 0.02 | 82 | 1011.6 |
| 20260904134730 | 51 | 339 | 1.0 | 3.0 | 0.01 | 0.14 | 0.02 | 82 | 1011.6 |
| 20260904134232 | 51 | 316 | 0.0 | 3.0 | 0.01 | 0.15 | 0.02 | 81 | 1011.5 |
| 20260904133730 | 51 | 213 | 0.0 | 3.0 | 0.01 | 0.15 | 0.02 | 81 | 1011.4 |
| 20260904133233 | 51 | 213 | 1.0 | 3.0 | 0.01 | 0.15 | 0.02 | 80 | 1011.4 |
| 20260904132730 | 51 | 213 | 2.0 | 5.0 | 0.02 | 0.15 | 0.02 | 79 | 1011.4 |
| 20260904132234 | 51 | 213 | 1.0 | 5.0 | 0.01 | 0.16 | 0.01 | 79 | 1011.3 |
| 20260904131731 | 51 | 217 | 1.0 | 3.0 | 0.01 | 0.16 | 0.01 | 80 | 1011.2 |
| 20260904131231 | 51 | 217 | 1.0 | 3.0 | 0.01 | 0.16 | 0.01 | 80 | 1011.0 |
| 20260904130232 | 52 | 217 | 1.0 | 3.0 | 0.01 | 0.16 | 0.01 | 81 | 1010.9 |
| 20260904125736 | 52 | 214 | 1.0 | 3.0 | 0.01 | 0.15 | 0.01 | 81 | 1010.8 |
| 20260904125235 | 52 | 215 | 1.0 | 3.0 | 0.01 | 0.15 | 0.01 | 80 | 1010.8 |
| 20260904124733 | 52 | 211 | 1.0 | 3.0 | 0.01 | 0.15 | 0.01 | 81 | 1010.7 |
| 20260904124235 | 52 | 213 | 1.0 | 3.0 | 0.01 | 0.15 | 0.01 | 80 | 1010.5 |
| 20260904123737 | 52 | 221 | 1.0 | 2.0 | 0.01 | 0.15 | 0.01 | 79 | 1010.5 |
| 20260904123235 | 52 | 222 | 1.0 | 2.0 | 0.01 | 0.15 | 0.01 | 78 | 1010.5 |
| 20260904122733 | 52 | 0 | 1.0 | 2.0 | 0.00 | 0.16 | 0.00 | 78 | 1010.4 |
| 20260904122234 | 53 | 0 | 1.0 | 3.0 | 0.00 | 0.16 | 0.00 | 76 | 1010.3 |
| 20260904121732 | 53 | 0 | 2.0 | 4.0 | 0.00 | 0.16 | 0.00 | 76 | 1010.4 |
| 20260904121236 | 54 | 0 | 3.0 | 8.0 | 0.00 | 0.16 | 0.00 | 73 | 1010.3 |
| 20260904120734 | 53 | 131 | 4.0 | 8.0 | 0.00 | 0.16 | 0.00 | 73 | 1010.4 |
| 20260904120237 | 52 | 122 | 2.0 | 6.0 | 0.00 | 0.16 | 0.00 | 79 | 1010.4 |
| 20260904115733 | 51 | 126 | 2.0 | 6.0 | 0.00 | 0.16 | 0.00 | 80 | 1010.9 |
| 20260904114735 | 51 | 221 | 2.0 | 5.0 | 0.00 | 0.16 | 0.00 | 78 | 1011.2 |
| 20260904114236 | 51 | 223 | 3.0 | 7.0 | 0.00 | 0.16 | 0.00 | 77 | 1010.9 |
| 20260904113737 | 51 | 222 | 1.0 | 7.0 | 0.00 | 0.16 | 0.00 | 78 | 1010.6 |
| 20260904113234 | 51 | 190 | 0.0 | 3.0 | 0.00 | 0.16 | 0.00 | 80 | 1010.2 |
| 20260904112732 | 51 | 221 | 1.0 | 5.0 | 0.00 | 0.16 | 0.00 | 79 | 1010.1 |
| 20260904112234 | 51 | 217 | 3.0 | 6.0 | 0.00 | 0.16 | 0.00 | 78 | 1009.4 |
| 20260904111732 | 51 | 219 | 4.0 | 7.0 | 0.00 | 0.16 | 0.00 | 78 | 1009.2 |
| 20260904111237 | 51 | 229 | 3.0 | 7.0 | 0.00 | 0.16 | 0.00 | 77 | 1008.9 |
| 20260904110235 | 51 | 211 | 3.0 | 5.0 | 0.00 | 0.16 | 0.00 | 78 | 1009.0 |
| 20260904105739 | 51 | 255 | 3.0 | 7.0 | 0.00 | 0.16 | 0.00 | 79 | 1009.0 |
| 20260904105237 | 51 | 243 | 3.0 | 8.0 | 0.00 | 0.16 | 0.00 | 80 | 1009.1 |
| 20260904104735 | 50 | 126 | 2.0 | 8.0 | 0.00 | 0.16 | 0.00 | 82 | 1009.3 |
| 20260904104238 | 50 | 191 | 0.0 | 4.0 | 0.00 | 0.16 | 0.00 | 82 | 1009.0 |
| 20260904102731 | 50 | 236 | 3.0 | 8.0 | 0.00 | 0.16 | 0.00 | 80 | 1007.2 |
| 20260904102232 | 50 | 207 | 3.0 | 8.0 | 0.00 | 0.16 | 0.00 | 80 | 1007.4 |
| 20260904101235 | 49 | 223 | 1.0 | 5.0 | 0.00 | 0.16 | 0.00 | 81 | 1007.9 |
| 20260904100730 | 49 | 167 | 1.0 | 4.0 | 0.00 | 0.16 | 0.00 | 82 | 1007.5 |
| 20260904100232 | 49 | 202 | 0.0 | 3.0 | 0.00 | 0.16 | 0.00 | 82 | 1007.2 |
| 20260904095234 | 49 | 244 | 0.0 | 0.0 | 0.00 | 0.16 | 0.00 | 82 | 1006.7 |
| 20260904094730 | 49 | 245 | 0.0 | 0.0 | 0.00 | 0.16 | 0.00 | 82 | 1006.3 |
| 20260904094232 | 49 | 245 | 0.0 | 0.0 | 0.00 | 0.16 | 0.00 | 83 | 1006.2 |
| 20260904093733 | 49 | 244 | 0.0 | 0.0 | 0.00 | 0.16 | 0.00 | 83 | 1006.2 |
| 20260904093233 | 48 | 244 | 0.0 | 1.0 | 0.00 | 0.16 | 0.00 | 83 | 1006.5 |
| 20260904092731 | 48 | 244 | 0.0 | 1.0 | 0.00 | 0.16 | 0.00 | 82 | 1006.5 |
| 20260904091733 | 48 | 245 | 2.0 | 3.0 | 0.00 | 0.16 | 0.00 | 82 | 1006.3 |
| 20260904091232 | 49 | 245 | 2.0 | 4.0 | 0.00 | 0.16 | 0.00 | 82 | 1006.2 |
| 20260904090235 | 49 | 244 | 2.0 | 4.0 | 0.00 | 0.16 | 0.00 | 81 | 1006.3 |
| 20260904085731 | 50 | 244 | 1.0 | 5.0 | 0.00 | 0.16 | 0.00 | 81 | 1006.5 |
| 20260904085232 | 50 | 236 | 1.0 | 5.0 | 0.00 | 0.16 | 0.00 | 81 | 1006.3 |
| 20260904084730 | 50 | 211 | 1.0 | 5.0 | 0.00 | 0.16 | 0.00 | 81 | 1006.6 |
| 20260904084233 | 49 | 213 | 1.0 | 3.0 | 0.00 | 0.16 | 0.00 | 82 | 1006.7 |
| 20260904083730 | 49 | 221 | 1.0 | 3.0 | 0.00 | 0.16 | 0.00 | 81 | 1006.7 |
| 20260904083232 | 50 | 225 | 1.0 | 3.0 | 0.00 | 0.16 | 0.00 | 81 | 1006.8 |
| 20260904082731 | 50 | 225 | 0.0 | 3.0 | 0.00 | 0.16 | 0.00 | 81 | 1006.7 |
| 20260904082235 | 50 | 224 | 1.0 | 3.0 | 0.00 | 0.16 | 0.00 | 81 | 1006.7 |
| 20260904081730 | 50 | 224 | 1.0 | 3.0 | 0.00 | 0.16 | 0.00 | 81 | 1006.7 |
| 20260904081232 | 49 | 223 | 0.0 | 2.0 | 0.00 | 0.16 | 0.00 | 81 | 1006.8 |
| 20260904080730 | 49 | 223 | 1.0 | 4.0 | 0.00 | 0.16 | 0.00 | 81 | 1006.9 |
| 20260904080232 | 49 | 223 | 2.0 | 4.0 | 0.00 | 0.16 | 0.00 | 82 | 1006.9 |
| 20260904075731 | 49 | 217 | 2.0 | 4.0 | 0.00 | 0.16 | 0.00 | 82 | 1007.0 |
| 20260904075238 | 49 | 211 | 1.0 | 4.0 | 0.00 | 0.16 | 0.00 | 82 | 1006.9 |
| 20260904074733 | 49 | 207 | 0.0 | 4.0 | 0.00 | 0.16 | 0.00 | 80 | 1007.1 |
| 20260904074234 | 49 | 327 | 0.0 | 0.0 | 0.00 | 0.16 | 0.00 | 80 | 1007.0 |
| 20260904072232 | 50 | 328 | 0.0 | 0.0 | 0.00 | 0.16 | 0.00 | 81 | 1006.9 |
| 20260904071730 | 50 | 328 | 0.0 | 0.0 | 0.00 | 0.16 | 0.00 | 80 | 1007.0 |
| 20260904071231 | 50 | 328 | 0.0 | 0.0 | 0.00 | 0.16 | 0.00 | 80 | 1007.0 |
| 20260904070730 | 50 | 328 | 0.0 | 0.0 | 0.00 | 0.16 | 0.00 | 81 | 1006.9 |
| 20260904070232 | 51 | 328 | 0.0 | 0.0 | 0.00 | 0.16 | 0.00 | 81 | 1007.0 |
| 20260904065232 | 51 | 329 | 0.0 | 0.0 | 0.00 | 0.16 | 0.00 | 80 | 1006.9 |
| 20260904064730 | 51 | 329 | 0.0 | 2.0 | 0.00 | 0.16 | 0.00 | 81 | 1007.0 |
| 20260904063236 | 51 | 328 | 1.0 | 4.0 | 0.00 | 0.16 | 0.00 | 80 | 1007.1 |
| 20260904062731 | 51 | 327 | 2.0 | 4.0 | 0.00 | 0.16 | 0.00 | 80 | 1007.2 |
| 20260904062232 | 52 | 335 | 2.0 | 4.0 | 0.00 | 0.16 | 0.00 | 81 | 1007.0 |
| 20260904061730 | 51 | 332 | 1.0 | 4.0 | 0.00 | 0.16 | 0.00 | 81 | 1007.1 |
| 20260904061233 | 51 | 39 | 1.0 | 3.0 | 0.00 | 0.16 | 0.00 | 82 | 1007.2 |
| 20260904060729 | 51 | 332 | 2.0 | 4.0 | 0.00 | 0.16 | 0.00 | 81 | 1007.5 |
| 20260904060234 | 51 | 332 | 2.0 | 4.0 | 0.00 | 0.16 | 0.00 | 82 | 1007.5 |
| 20260904055731 | 51 | 331 | 2.0 | 4.0 | 0.00 | 0.16 | 0.16 | 82 | 1007.5 |
| 20260904054730 | 51 | 327 | 1.0 | 3.0 | 0.00 | 0.16 | 0.16 | 81 | 1007.8 |
| 20260904054233 | 51 | 327 | 2.0 | 3.0 | 0.00 | 0.16 | 0.16 | 81 | 1007.8 |
| 20260904053232 | 52 | 341 | 0.0 | 3.0 | 0.00 | 0.16 | 0.16 | 80 | 1007.9 |
| 20260904052731 | 52 | 338 | 1.0 | 3.0 | 0.00 | 0.16 | 0.16 | 80 | 1008.1 |
| 20260904051730 | 52 | 0 | 0.0 | 3.0 | 0.00 | 0.16 | 0.16 | 79 | 1008.2 |
| 20260904051233 | 52 | 338 | 1.0 | 2.0 | 0.00 | 0.16 | 0.16 | 79 | 1008.3 |
| 20260904050732 | 53 | 338 | 1.0 | 3.0 | 0.00 | 0.16 | 0.16 | 79 | 1008.2 |
| 20260904050232 | 53 | 338 | 1.0 | 4.0 | 0.00 | 0.16 | 0.16 | 79 | 1008.3 |
| 20260904045734 | 53 | 0 | 1.0 | 4.0 | 0.00 | 0.16 | 0.16 | 79 | 1008.3 |
| 20260904045234 | 53 | 336 | 0.0 | 0.0 | 0.00 | 0.16 | 0.16 | 77 | 1008.4 |
| 20260904044232 | 54 | 336 | 0.0 | 0.0 | 0.00 | 0.16 | 0.16 | 75 | 1008.6 |
| 20260903225235 | 63 | 0 | 1.0 | 4.0 | 0.00 | 0.20 | 0.16 | 65 | 1010.1 |
| 20260903224733 | 63 | 0 | 1.0 | 4.0 | 0.00 | 0.20 | 0.16 | 67 | 1010.1 |
| 20260903224233 | 63 | 0 | 1.0 | 4.0 | 0.00 | 0.20 | 0.16 | 67 | 1010.0 |
| 20260903223730 | 63 | 0 | 1.0 | 3.0 | 0.00 | 0.21 | 0.16 | 66 | 1010.0 |
| 20260903223233 | 63 | 0 | 1.0 | 3.0 | 0.00 | 0.22 | 0.16 | 67 | 1010.0 |
| 20260903222730 | 63 | 0 | 0.0 | 2.0 | 0.00 | 0.23 | 0.16 | 69 | 1010.0 |
| 20260903221730 | 63 | 0 | 0.0 | 0.0 | 0.00 | 0.28 | 0.16 | 67 | 1010.1 |
| 20260903221240 | 63 | 0 | 0.0 | 0.0 | 0.00 | 0.30 | 0.16 | 69 | 1010.1 |
| 20260903220731 | 62 | 244 | 0.0 | 0.0 | 0.00 | 0.33 | 0.16 | 70 | 1010.2 |